Time[GMT],salinity[psu](1m),sigma_t[kg/m^3](1m),conductivity[msiemens/cm](1m),temperature[C](1m)
2020-11-08 00:00,,,,11.86
2020-11-08 01:00,,,,11.84
2020-11-08 02:00,,,,11.77
2020-11-08 03:00,,,,11.69
2020-11-08 04:00,,,,11.70
2020-11-08 05:00,,,,11.72
2020-11-08 06:00,,,,11.80
2020-11-08 07:00,,,,11.83
2020-11-08 08:00,,,,12.05
2020-11-08 09:00,,,,12.11
2020-11-08 10:00,,,,11.99
2020-11-08 11:00,,,,11.85
2020-11-08 12:00,,,,11.89
2020-11-08 13:00,32.310,24.542,37.030,11.78
2020-11-08 14:00,32.224,24.473,36.950,11.79
2020-11-08 15:00,32.143,24.416,36.840,11.76
2020-11-08 16:00,32.182,24.428,36.970,11.86
2020-11-08 17:00,32.138,24.437,36.710,11.62
2020-11-08 18:00,32.297,24.572,36.820,11.56
2020-11-08 19:00,32.166,24.444,36.810,11.70
2020-11-08 20:00,32.388,24.490,37.650,12.38
2020-11-08 21:00,32.508,24.553,37.920,12.54
2020-11-08 22:00,32.596,24.594,38.140,12.68
2020-11-08 23:00,32.562,24.581,38.040,12.61
2020-11-09 00:00,32.431,24.533,37.650,12.33
2020-11-09 01:00,32.323,24.474,37.420,12.20
2020-11-09 02:00,32.173,24.454,36.800,11.68
2020-11-09 03:00,32.180,24.465,36.780,11.65
2020-11-09 04:00,32.308,24.613,36.670,11.38
2020-11-09 05:00,32.298,24.605,36.660,11.38
2020-11-09 06:00,32.400,24.677,36.800,11.42
2020-11-09 07:00,32.397,24.680,36.770,11.39
2020-11-09 08:00,32.193,24.486,36.740,11.59
2020-11-09 09:00,32.286,24.496,37.140,11.93
2020-11-09 10:00,32.324,24.509,37.260,12.02
2020-11-09 11:00,32.277,24.488,37.130,11.93
2020-11-09 12:00,32.232,24.481,36.950,11.78
2020-11-09 13:00,32.186,24.475,36.760,11.62
2020-11-09 14:00,32.200,24.462,36.890,11.75
2020-11-09 15:00,32.224,24.455,37.040,11.89
2020-11-09 16:00,32.260,24.453,37.220,12.05
2020-11-09 17:00,32.268,24.444,37.300,12.13
2020-11-09 18:00,32.432,24.644,37.120,11.74
2020-11-09 19:00,32.358,24.580,37.070,11.77
2020-11-09 20:00,32.271,24.529,36.900,11.68
2020-11-09 21:00,32.281,24.536,36.920,11.69
2020-11-09 22:00,32.331,24.573,36.980,11.70
2020-11-09 23:00,32.355,24.618,36.870,11.55
2020-11-10 00:00,32.387,24.656,36.840,11.48
2020-11-10 01:00,32.294,24.505,37.130,11.91
2020-11-10 02:00,32.280,24.502,37.080,11.87
2020-11-10 03:00,32.280,24.520,36.990,11.77
2020-11-10 04:00,,,,
2020-11-10 05:00,32.255,24.475,37.090,11.91
2020-11-10 06:00,32.249,24.465,37.110,11.94
2020-11-10 07:00,32.270,24.459,37.240,12.06
2020-11-10 08:00,32.278,24.539,36.890,11.66
2020-11-10 09:00,32.272,24.528,36.910,11.69
2020-11-10 10:00,32.278,24.522,36.970,11.75
2020-11-10 11:00,32.297,24.537,36.990,11.75
2020-11-10 12:00,32.303,24.549,36.960,11.71
2020-11-10 13:00,32.303,24.549,36.960,11.71
2020-11-10 14:00,32.335,24.550,37.110,11.84
2020-11-10 15:00,32.310,24.524,37.120,11.88
2020-11-10 16:00,32.327,24.542,37.110,11.85
2020-11-10 17:00,32.361,24.541,37.280,12.00
2020-11-10 18:00,32.399,24.553,37.400,12.09
2020-11-10 19:00,32.461,24.592,37.510,12.14
2020-11-10 20:00,32.601,24.650,37.900,12.41
2020-11-10 21:00,32.782,24.705,38.490,12.85
2020-11-10 22:00,33.025,24.801,39.180,13.32
2020-11-10 23:00,32.821,24.733,38.540,12.86
2020-11-11 00:00,32.745,24.719,38.250,12.63
2020-11-11 01:00,32.576,24.643,37.810,12.34
2020-11-11 02:00,32.513,24.625,37.600,12.18
2020-11-11 03:00,32.385,24.605,37.080,11.75
2020-11-11 04:00,32.375,24.561,37.250,11.95
2020-11-11 05:00,32.360,24.523,37.360,12.09
2020-11-11 06:00,32.369,24.532,37.360,12.08
2020-11-11 07:00,32.361,24.541,37.280,12.00
2020-11-11 08:00,32.426,24.596,37.320,11.97
2020-11-11 09:00,32.503,24.638,37.490,12.07
2020-11-11 10:00,32.794,24.753,38.320,12.65
2020-11-11 11:00,33.044,24.843,39.070,13.18
2020-11-11 12:00,33.087,24.860,39.190,13.26
2020-11-11 13:00,32.762,24.736,38.250,12.61
2020-11-11 14:00,32.585,24.652,37.810,12.33
2020-11-11 15:00,32.469,24.583,37.590,12.22
2020-11-11 16:00,32.422,24.564,37.460,12.13
2020-11-11 17:00,32.433,24.550,37.580,12.25
2020-11-11 18:00,32.423,24.523,37.660,12.35
2020-11-11 19:00,32.428,24.518,37.710,12.40
2020-11-11 20:00,32.492,24.593,37.650,12.26
2020-11-11 21:00,32.615,24.631,38.050,12.56
2020-11-11 22:00,33.042,24.793,39.290,13.42
2020-11-11 23:00,33.154,24.854,39.530,13.55
2020-11-12 00:00,33.064,24.827,39.240,13.34
2020-11-12 01:00,33.041,24.821,39.160,13.28
2020-11-12 02:00,32.982,24.783,39.060,13.24
2020-11-12 03:00,32.805,24.713,38.560,12.90
2020-11-12 04:00,32.661,24.648,38.190,12.66
2020-11-12 05:00,32.522,24.615,37.690,12.27
2020-11-12 06:00,32.534,24.618,37.730,12.30
2020-11-12 07:00,32.495,24.589,37.690,12.30
2020-11-12 08:00,32.537,24.615,37.760,12.33
2020-11-12 09:00,32.628,24.655,38.000,12.49
2020-11-12 10:00,32.720,24.669,38.370,12.79
2020-11-12 11:00,32.841,24.721,38.690,13.00
2020-11-12 12:00,32.797,24.703,38.570,12.92
2020-11-12 13:00,32.765,24.686,38.500,12.88
2020-11-12 14:00,32.678,24.623,38.390,12.86
2020-11-12 15:00,32.649,24.602,38.350,12.85
2020-11-12 16:00,32.571,24.568,38.140,12.71
2020-11-12 17:00,32.505,24.537,37.980,12.61
2020-11-12 18:00,32.500,24.522,38.030,12.67
2020-11-12 19:00,32.515,24.522,38.100,12.73
2020-11-12 20:00,32.516,24.521,38.110,12.74
2020-11-12 21:00,32.577,24.558,38.220,12.79
2020-11-12 22:00,32.569,24.550,38.220,12.80
2020-11-12 23:00,32.302,24.345,37.930,12.79
2020-11-13 00:00,32.319,24.364,37.920,12.76
2020-11-13 01:00,32.533,24.538,38.110,12.72
2020-11-13 02:00,32.840,24.699,38.790,13.11
2020-11-13 03:00,32.795,24.682,38.660,13.02
2020-11-13 04:00,32.840,24.746,38.570,12.87
2020-11-13 05:00,32.835,24.709,38.720,13.04
2020-11-13 06:00,32.823,24.705,38.680,13.01
2020-11-13 07:00,32.868,24.722,38.810,13.10
2020-11-13 08:00,32.888,24.734,38.850,13.12
2020-11-13 09:00,32.884,24.741,38.800,13.07
2020-11-13 10:00,32.944,24.754,39.020,13.24
2020-11-13 11:00,32.920,24.751,38.920,13.16
2020-11-13 12:00,32.961,24.773,39.010,13.21
2020-11-13 13:00,32.970,24.781,39.010,13.20
2020-11-13 14:00,32.970,24.781,39.010,13.20
2020-11-13 15:00,32.983,24.782,39.070,13.25
2020-11-13 16:00,32.963,24.768,39.040,13.24
2020-11-13 17:00,32.897,24.743,38.850,13.11
2020-11-13 18:00,32.586,24.609,38.020,12.56
2020-11-13 19:00,32.488,24.579,37.700,12.32
2020-11-13 20:00,32.507,24.594,37.720,12.32
2020-11-13 21:00,32.563,24.620,37.860,12.41
2020-11-13 22:00,32.899,24.739,38.880,13.14
2020-11-13 23:00,33.168,24.850,39.610,13.62
2020-11-14 00:00,33.273,24.864,40.030,13.95
2020-11-14 01:00,33.282,24.871,40.040,13.95
2020-11-14 02:00,33.288,24.887,39.990,13.89
2020-11-14 03:00,33.256,24.875,39.900,13.83
2020-11-14 04:00,33.289,24.883,40.020,13.92
2020-11-14 05:00,33.093,24.847,39.280,13.35
2020-11-14 06:00,32.647,24.649,38.120,12.60
2020-11-14 07:00,32.502,24.600,37.670,12.27
2020-11-14 08:00,32.500,24.602,37.650,12.25
2020-11-14 09:00,32.535,24.617,37.740,12.31
2020-11-14 10:00,32.620,24.645,38.010,12.51
2020-11-14 11:00,32.858,24.740,38.680,12.97
2020-11-14 12:00,33.245,24.873,39.860,13.80
2020-11-14 13:00,32.940,24.712,39.190,13.43
2020-11-14 14:00,32.916,24.706,39.110,13.37
2020-11-14 15:00,32.921,24.722,39.060,13.31
2020-11-14 16:00,32.880,24.749,38.740,13.01
2020-11-14 17:00,33.139,24.858,39.440,13.47
2020-11-14 18:00,33.118,24.850,39.380,13.43
2020-11-14 19:00,32.986,24.800,39.000,13.17
2020-11-14 20:00,,,,
2020-11-14 21:00,32.968,24.834,38.760,12.93
2020-11-14 22:00,33.062,24.857,39.090,13.18
2020-11-14 23:00,33.268,24.905,39.820,13.73
2020-11-15 00:00,32.694,24.621,38.470,12.93
2020-11-15 01:00,32.060,24.440,36.320,11.27
2020-11-15 02:00,32.118,24.518,36.210,11.08
2020-11-15 03:00,32.106,24.572,35.880,10.72
2020-11-15 04:00,32.234,24.612,36.310,11.06
2020-11-15 05:00,32.653,24.682,37.990,12.45
2020-11-15 06:00,,,,
2020-11-15 07:00,32.975,24.821,38.850,13.02
2020-11-15 08:00,32.977,24.817,38.880,13.05
2020-11-15 09:00,32.893,24.774,38.690,12.94
2020-11-15 10:00,32.817,24.738,38.500,12.82
2020-11-15 11:00,32.664,24.708,37.920,12.36
2020-11-15 12:00,32.130,24.570,36.010,10.84
2020-11-15 13:00,31.995,24.414,36.130,11.13
2020-11-15 14:00,31.855,24.309,35.970,11.11
2020-11-15 15:00,31.895,24.354,35.940,11.03
2020-11-15 16:00,31.968,24.405,36.040,11.06
2020-11-15 17:00,31.968,24.405,36.040,11.06
2020-11-15 18:00,32.016,24.429,36.160,11.14
2020-11-15 19:00,32.160,24.467,36.670,11.55
2020-11-15 20:00,32.601,24.710,37.610,12.09
2020-11-15 21:00,32.658,24.716,37.850,12.29
2020-11-15 22:00,32.640,24.720,37.750,12.20
2020-11-15 23:00,32.684,24.742,37.850,12.26
2020-11-16 00:00,32.057,24.443,36.290,11.24
2020-11-16 01:00,31.879,24.336,35.950,11.06
2020-11-16 02:00,31.753,24.176,36.130,11.41
2020-11-16 03:00,31.902,24.304,36.220,11.34
2020-11-16 04:00,,,,
2020-11-16 05:00,31.917,24.307,36.280,11.39
2020-11-16 07:00,32.055,24.365,36.660,11.66
2020-11-16 08:00,32.697,24.682,38.200,12.63
2020-11-16 09:00,,,,
2020-11-16 10:00,32.688,24.736,37.900,12.31
2020-11-16 12:00,32.680,24.728,37.900,12.32
2020-11-16 13:00,32.360,24.578,37.090,11.79
2020-11-16 14:00,32.229,24.468,37.000,11.84
2020-11-16 15:00,32.406,24.525,37.570,12.27
2020-11-16 16:00,32.469,24.544,37.780,12.43
2020-11-16 17:00,32.507,24.554,37.910,12.53
2020-11-16 18:00,32.564,24.577,38.070,12.64
2020-11-16 19:00,32.481,24.549,37.810,12.45
2020-11-16 20:00,32.359,24.506,37.440,12.18
2020-11-16 21:00,32.287,24.495,37.150,11.94
2020-11-16 23:00,32.282,24.518,37.010,11.79
2020-11-17 00:00,32.324,24.527,37.170,11.92
2020-11-17 01:00,32.347,24.520,37.310,12.05
2020-11-17 02:00,32.724,24.662,38.420,12.84
2020-11-17 03:00,32.368,24.569,37.180,11.88
2020-11-17 04:00,32.187,24.540,36.440,11.26
2020-11-17 05:00,32.175,24.534,36.410,11.24
2020-11-17 06:00,32.165,24.527,36.400,11.24
2020-11-17 07:00,32.137,24.503,36.380,11.25
2020-11-17 08:00,32.105,24.482,36.330,11.23
2020-11-17 09:00,32.296,24.573,36.810,11.55
2020-11-17 10:00,32.764,24.734,38.270,12.63
2020-11-17 11:00,,,,
2020-11-17 12:00,32.654,24.701,37.910,12.36
2020-11-17 13:00,32.168,24.524,36.430,11.27
2020-11-17 14:00,32.128,24.526,36.220,11.08
2020-11-17 15:00,32.124,24.529,36.190,11.05
2020-11-17 16:00,32.080,24.501,36.110,11.01
2020-11-17 17:00,32.042,24.470,36.080,11.02
2020-11-17 18:00,32.051,24.478,36.080,11.01
2020-11-17 19:00,32.067,24.496,36.070,10.98
2020-11-17 20:00,32.120,24.532,36.150,11.01
2020-11-17 21:00,32.083,24.514,36.060,10.95
2020-11-17 22:00,31.970,24.433,35.910,10.91
2020-11-17 23:00,31.961,24.425,35.910,10.92
2020-11-18 00:00,31.971,24.432,35.920,10.92
2020-11-18 01:00,32.021,24.471,35.970,10.92
2020-11-18 02:00,32.054,24.491,36.030,10.95
2020-11-18 03:00,32.094,24.521,36.080,10.96
2020-11-18 04:00,32.169,24.571,36.200,11.01
2020-11-18 05:00,32.136,24.550,36.140,10.98
2020-11-18 06:00,32.104,24.529,36.090,10.96
2020-11-18 07:00,32.133,24.553,36.110,10.95
2020-11-18 08:00,32.144,24.560,36.130,10.96
2020-11-18 09:00,32.188,24.602,36.130,10.91
2020-11-18 10:00,32.191,24.600,36.160,10.94
2020-11-18 11:00,32.206,24.619,36.140,10.90
2020-11-18 12:00,32.225,24.635,36.150,10.89
2020-11-18 13:00,32.253,24.660,36.160,10.87
2020-11-18 14:00,32.227,24.633,36.170,10.91
2020-11-18 15:00,31.979,24.426,35.990,10.99
2020-11-18 16:00,31.769,24.224,35.970,11.21
2020-11-18 17:00,31.792,24.251,35.950,11.16
2020-11-18 18:00,31.775,24.234,35.950,11.18
2020-11-18 19:00,,,,
2020-11-18 21:00,31.772,24.237,35.920,11.15
2020-11-18 22:00,31.814,24.280,35.910,11.09
2020-11-18 23:00,31.898,24.367,35.890,10.97
2020-11-19 00:00,31.888,24.359,35.880,10.97
2020-11-19 01:00,31.981,24.440,35.930,10.92
2020-11-19 02:00,32.099,24.548,35.970,10.83
2020-11-19 03:00,32.168,24.603,36.030,10.82
2020-11-19 04:00,31.913,24.385,35.870,10.93
2020-11-19 05:00,32.108,24.571,35.890,10.73
2020-11-19 06:00,32.191,24.631,36.000,10.76
2020-11-19 07:00,32.204,24.636,36.040,10.79
2020-11-19 08:00,32.218,24.625,36.170,10.92
2020-11-19 09:00,32.205,24.604,36.210,10.98
2020-11-19 10:00,32.089,24.540,35.960,10.83
2020-11-19 11:00,31.953,24.430,35.840,10.85
2020-11-19 12:00,31.987,24.420,36.060,11.06
2020-11-19 13:00,32.007,24.465,35.930,10.89
2020-11-19 14:00,32.006,24.466,35.920,10.88
2020-11-19 15:00,31.986,24.437,35.970,10.96
2020-11-19 16:00,32.246,24.665,36.100,10.81
2020-11-19 17:00,32.218,24.671,35.930,10.65
2020-11-19 18:00,32.275,24.719,35.970,10.63
2020-11-19 19:00,32.290,24.724,36.020,10.67
2020-11-19 20:00,32.296,24.734,36.000,10.64
2020-11-19 21:00,32.295,24.735,35.990,10.63
2020-11-19 22:00,32.269,24.709,35.990,10.66
2020-11-19 23:00,32.341,24.715,36.320,10.95
2020-11-20 00:00,32.139,24.623,35.780,10.57
2020-11-20 01:00,32.105,24.588,35.790,10.62
2020-11-20 02:00,32.127,24.602,35.830,10.64
2020-11-20 03:00,32.161,24.622,35.900,10.68
2020-11-20 04:00,32.191,24.645,35.930,10.68
2020-11-20 05:00,32.248,24.694,35.960,10.65
2020-11-20 06:00,32.308,24.741,36.020,10.65
2020-11-20 07:00,32.446,24.770,36.560,11.10
2020-11-20 08:00,32.453,24.779,36.550,11.08
2020-11-20 09:00,32.443,24.772,36.540,11.08
2020-11-20 10:00,32.475,24.776,36.670,11.19
2020-11-20 11:00,32.368,24.755,36.250,10.84
2020-11-20 12:00,32.315,24.719,36.170,10.81
2020-11-20 13:00,32.289,24.709,36.090,10.75
2020-11-20 14:00,,,,
2020-11-20 15:00,32.279,24.717,36.000,10.66
2020-11-20 16:00,32.434,24.764,36.530,11.08
2020-11-20 17:00,32.438,24.776,36.490,11.03
2020-11-20 18:00,32.459,24.791,36.520,11.04
2020-11-20 19:00,32.452,24.780,36.540,11.07
2020-11-20 20:00,32.535,24.804,36.830,11.30
2020-11-20 21:00,32.549,24.807,36.880,11.34
2020-11-20 22:00,32.652,24.841,37.220,11.60
2020-11-20 23:00,32.690,24.835,37.430,11.79
2020-11-21 00:00,32.679,24.828,37.410,11.78
2020-11-21 01:00,32.642,24.816,37.290,11.69
2020-11-21 02:00,32.585,24.805,37.070,11.51
2020-11-21 03:00,32.593,24.815,37.060,11.49
2020-11-21 04:00,32.623,24.818,37.190,11.60
2020-11-21 05:00,32.696,24.847,37.400,11.75
2020-11-21 06:00,32.654,24.858,37.140,11.51
2020-11-21 07:00,32.751,24.897,37.420,11.71
2020-11-21 08:00,32.856,24.942,37.710,11.91
2020-11-21 09:00,32.891,24.956,37.810,11.98
2020-11-21 10:00,32.904,24.959,37.860,12.02
2020-11-21 11:00,,,,
2020-11-21 12:00,32.986,24.990,38.100,12.19
2020-11-21 13:00,32.881,24.948,37.800,11.98
2020-11-21 14:00,32.741,24.889,37.410,11.71
2020-11-21 15:00,32.664,24.865,37.160,11.52
2020-11-21 16:00,32.640,24.855,37.090,11.47
2020-11-21 17:00,32.771,24.911,37.450,11.72
2020-11-21 18:00,32.708,24.889,37.250,11.57
2020-11-21 19:00,33.106,25.026,38.500,12.49
2020-11-21 20:00,33.028,25.015,38.180,12.23
2020-11-21 21:00,33.006,25.004,38.130,12.20
2020-11-21 22:00,33.027,25.016,38.170,12.22
2020-11-21 23:00,33.137,25.044,38.560,12.52
2020-11-22 00:00,33.086,25.036,38.360,12.36
2020-11-22 01:00,33.162,25.050,38.650,12.59
2020-11-22 02:00,33.193,25.066,38.720,12.63
2020-11-22 03:00,33.221,25.090,38.740,12.62
2020-11-22 04:00,33.210,25.085,38.710,12.60
2020-11-22 05:00,33.178,25.070,38.630,12.55
2020-11-22 06:00,33.116,25.057,38.400,12.37
2020-11-22 07:00,32.927,24.969,37.920,12.06
2020-11-22 08:00,32.824,24.923,37.650,11.88
2020-11-22 09:00,32.428,24.769,36.480,11.03
2020-11-22 10:00,32.531,24.808,36.790,11.26
2020-11-22 11:00,32.573,24.835,36.860,11.29
2020-11-22 12:00,32.696,24.885,37.210,11.54
2020-11-22 13:00,32.796,24.919,37.530,11.78
2020-11-22 14:00,32.829,24.937,37.600,11.82
2020-11-22 15:00,32.899,24.966,37.800,11.96
2020-11-22 16:00,32.769,24.913,37.430,11.70
2020-11-22 17:00,32.611,24.850,36.970,11.37
2020-11-22 18:00,32.587,24.839,36.910,11.33
2020-11-22 19:00,32.708,24.889,37.250,11.57
2020-11-22 20:00,32.450,24.799,36.430,10.95
2020-11-22 21:00,32.368,24.787,36.090,10.66
2020-11-22 22:00,32.413,24.830,36.090,10.61
2020-11-22 23:00,32.413,24.830,36.090,10.61
2020-11-23 00:00,32.335,24.750,36.110,10.72
2020-11-23 01:00,32.463,24.787,36.560,11.08
2020-11-23 02:00,32.588,24.838,36.920,11.34
2020-11-23 03:00,32.707,24.891,37.240,11.56
2020-11-23 04:00,32.806,24.927,37.540,11.78
2020-11-23 05:00,32.795,24.920,37.520,11.77
2020-11-23 06:00,32.647,24.865,37.070,11.44
2020-11-23 07:00,32.567,24.841,36.800,11.23
2020-11-23 08:00,32.431,24.815,36.260,10.78
2020-11-23 09:00,32.435,24.828,36.210,10.72
2020-11-23 10:00,32.425,24.820,36.200,10.72
2020-11-23 11:00,32.430,24.831,36.170,10.68
2020-11-23 12:00,32.442,24.838,36.190,10.69
2020-11-23 13:00,32.434,24.829,36.200,10.71
2020-11-23 14:00,32.525,24.848,36.560,11.01
2020-11-23 15:00,32.775,24.905,37.500,11.77
2020-11-23 16:00,32.863,24.932,37.790,11.99
2020-11-23 17:00,32.907,24.955,37.890,12.05
2020-11-23 18:00,32.863,24.932,37.790,11.99
2020-11-23 19:00,32.750,24.898,37.410,11.70
2020-11-23 20:00,32.558,24.850,36.710,11.14
2020-11-23 21:00,32.482,24.837,36.400,10.88
2020-11-23 22:00,32.530,24.843,36.610,11.06
2020-11-23 23:00,32.511,24.844,36.510,10.97
2020-11-24 00:00,32.489,24.814,36.550,11.04
2020-11-24 01:00,32.484,24.818,36.510,11.00
2020-11-24 02:00,,,,
2020-11-24 03:00,32.606,24.855,36.920,11.32
2020-11-24 04:00,32.698,24.882,37.240,11.57
2020-11-24 05:00,32.720,24.875,37.380,11.70
2020-11-24 06:00,32.667,24.880,37.100,11.45
2020-11-24 07:00,32.630,24.865,36.990,11.37
2020-11-24 08:00,32.534,24.839,36.650,11.10
2020-11-24 09:00,32.675,24.909,36.990,11.32
2020-11-24 10:00,32.755,24.930,37.280,11.55
2020-11-24 11:00,32.967,24.997,37.970,12.07
2020-11-24 12:00,32.992,25.003,38.070,12.15
2020-11-24 13:00,,,,
2020-11-24 14:00,33.095,25.069,38.240,12.22
2020-11-24 15:00,33.074,25.056,38.200,12.20
2020-11-24 16:00,33.103,25.079,38.230,12.20
2020-11-24 17:00,33.092,25.072,38.210,12.19
2020-11-24 18:00,33.122,25.094,38.250,12.20
2020-11-24 19:00,33.126,25.110,38.190,12.13
2020-11-24 20:00,33.126,25.133,38.080,12.01
2020-11-24 21:00,33.170,25.131,38.300,12.20
2020-11-24 22:00,33.131,25.170,37.920,11.83
2020-11-24 23:00,33.011,25.146,37.450,11.45
2020-11-25 00:00,33.026,25.126,37.630,11.63
2020-11-25 01:00,33.057,25.146,37.680,11.65
2020-11-25 02:00,33.057,25.147,37.670,11.64
2020-11-25 03:00,33.063,25.160,37.640,11.60
2020-11-25 04:00,33.059,25.165,37.590,11.55
2020-11-25 05:00,33.145,25.192,37.880,11.77
2020-11-25 06:00,33.148,25.189,37.910,11.80
2020-11-25 07:00,33.147,25.190,37.900,11.79
2020-11-25 08:00,33.104,25.188,37.700,11.62
2020-11-25 09:00,33.058,25.145,37.690,11.66
2020-11-25 10:00,32.919,25.062,37.420,11.52
2020-11-25 11:00,32.815,25.050,36.970,11.14
2020-11-25 12:00,,,,
2020-11-25 13:00,32.576,24.919,36.450,10.83
2020-11-25 14:00,32.701,24.988,36.720,10.99
2020-11-25 15:00,32.863,25.071,37.100,11.23
2020-11-25 16:00,33.059,25.144,37.700,11.67
2020-11-25 17:00,33.062,25.139,37.740,11.71
2020-11-25 18:00,33.081,25.135,37.850,11.81
2020-11-25 19:00,33.146,25.148,38.100,12.01
2020-11-25 20:00,33.103,25.145,37.910,11.85
2020-11-25 21:00,33.076,25.142,37.790,11.75
2020-11-25 22:00,33.041,25.126,37.700,11.69
2020-11-25 23:00,32.901,25.065,37.320,11.43
2020-11-26 00:00,32.727,24.980,36.890,11.15
2020-11-26 01:00,32.489,24.847,36.380,10.85
2020-11-26 02:00,32.425,24.804,36.280,10.81
2020-11-26 03:00,32.587,24.892,36.640,11.03
2020-11-26 04:00,32.777,24.999,37.040,11.26
2020-11-26 05:00,,,,
2020-11-26 06:00,33.108,25.138,37.970,11.91
2020-11-26 07:00,,,,
2020-11-26 08:00,33.186,25.151,38.280,12.16
2020-11-26 09:00,33.095,25.135,37.920,11.87
2020-11-26 10:00,32.951,25.082,37.480,11.55
2020-11-26 11:00,32.846,25.033,37.210,11.37
2020-11-26 12:00,32.566,24.877,36.610,11.02
2020-11-26 13:00,32.599,24.897,36.680,11.06
2020-11-26 14:00,32.580,24.881,36.660,11.06
2020-11-26 15:00,32.604,24.893,36.720,11.10
2020-11-26 16:00,32.548,24.860,36.610,11.04
2020-11-26 17:00,32.546,24.845,36.680,11.12
2020-11-26 18:00,32.657,24.927,36.810,11.14
2020-11-26 19:00,32.648,24.918,36.810,11.15
2020-11-26 20:00,32.484,24.835,36.420,10.90
2020-11-26 21:00,32.322,24.745,36.070,10.69
2020-11-26 22:00,32.251,24.692,35.990,10.68
2020-11-26 23:00,32.226,24.680,35.920,10.63
2020-11-27 00:00,32.137,24.595,35.920,10.73
2020-11-27 01:00,32.168,24.617,35.960,10.74
2020-11-27 02:00,32.156,24.611,35.930,10.72
2020-11-27 03:00,32.340,24.731,36.230,10.85
2020-11-27 04:00,32.556,24.870,36.600,11.02
2020-11-27 05:00,32.811,24.998,37.210,11.41
2020-11-27 06:00,33.095,25.091,38.130,12.10
2020-11-27 07:00,33.118,25.123,38.090,12.03
2020-11-27 08:00,33.009,25.066,37.840,11.88
2020-11-27 09:00,32.966,25.040,37.760,11.84
2020-11-27 10:00,32.380,24.745,36.360,10.95
2020-11-27 11:00,32.400,24.761,36.380,10.95
2020-11-27 12:00,32.421,24.775,36.410,10.96
2020-11-27 13:00,32.575,24.869,36.700,11.11
2020-11-27 14:00,32.367,24.740,36.320,10.92
2020-11-27 15:00,,,,
2020-11-27 16:00,32.438,24.776,36.490,11.03
2020-11-27 17:00,32.627,24.904,36.780,11.14
2020-11-27 18:00,32.663,24.921,36.870,11.20
2020-11-27 19:00,32.859,25.037,37.250,11.40
2020-11-27 20:00,32.929,25.070,37.430,11.52
2020-11-27 21:00,32.905,25.060,37.360,11.47
2020-11-27 22:00,32.627,24.904,36.780,11.14
2020-11-27 23:00,32.484,24.818,36.510,11.00
2020-11-28 00:00,32.394,24.766,36.320,10.89
2020-11-28 01:00,32.650,24.934,36.740,11.07
2020-11-28 02:00,32.800,25.029,37.000,11.19
2020-11-28 03:00,32.766,25.010,36.930,11.15
2020-11-28 04:00,32.700,24.971,36.800,11.08
2020-11-28 05:00,32.679,24.958,36.760,11.06
2020-11-28 06:00,32.605,24.908,36.650,11.02
2020-11-28 07:00,,,,
2020-11-28 08:00,32.715,24.974,36.860,11.13
2020-11-28 09:00,32.703,24.968,36.830,11.11
2020-11-28 10:00,32.659,24.943,36.740,11.06
2020-11-28 11:00,32.646,24.938,36.700,11.03
2020-11-28 12:00,32.876,25.094,37.050,11.16
2020-11-28 13:00,32.956,25.135,37.240,11.28
2020-11-28 14:00,32.964,25.125,37.330,11.37
2020-11-28 15:00,32.978,25.128,37.380,11.41
2020-11-28 16:00,32.891,25.037,37.410,11.54
2020-11-28 17:00,32.885,25.025,37.440,11.58
2020-11-28 18:00,32.977,25.109,37.470,11.51
2020-11-28 19:00,32.965,25.104,37.440,11.49
2020-11-28 20:00,32.992,25.110,37.540,11.57
2020-11-28 21:00,33.007,25.110,37.610,11.63
2020-11-28 22:00,33.025,25.127,37.620,11.62
2020-11-28 23:00,32.989,25.113,37.510,11.54
2020-11-29 00:00,32.355,24.734,36.290,10.90
2020-11-29 01:00,32.067,24.555,35.770,10.64
2020-11-29 02:00,32.071,24.567,35.730,10.59
2020-11-29 03:00,32.077,24.578,35.700,10.55
2020-11-29 04:00,32.096,24.594,35.720,10.55
2020-11-29 05:00,32.115,24.610,35.730,10.54
2020-11-29 06:00,32.181,24.637,35.920,10.68
2020-11-29 07:00,32.133,24.612,35.810,10.61
2020-11-29 08:00,32.242,24.683,35.990,10.69
2020-11-29 09:00,32.285,24.712,36.060,10.72
2020-11-29 10:00,32.314,24.736,36.080,10.71
2020-11-29 11:00,32.151,24.644,35.730,10.50
2020-11-29 12:00,32.257,24.761,35.660,10.30
2020-11-29 13:00,32.280,24.776,35.700,10.32
2020-11-29 14:00,32.253,24.750,35.700,10.35
2020-11-29 15:00,32.286,24.772,35.750,10.37
2020-11-29 16:00,32.278,24.762,35.760,10.39
2020-11-29 17:00,32.278,24.762,35.760,10.39
2020-11-29 18:00,32.291,24.768,35.800,10.42
2020-11-29 19:00,32.274,24.750,35.800,10.44
2020-11-29 20:00,32.302,24.760,35.890,10.51
2020-11-29 21:00,32.279,24.746,35.850,10.49
2020-11-29 22:00,32.276,24.749,35.820,10.46
2020-11-29 23:00,32.284,24.758,35.810,10.44
2020-11-30 00:00,32.308,24.786,35.790,10.39
2020-11-30 01:00,32.296,24.779,35.760,10.37
2020-11-30 02:00,31.799,24.413,35.160,10.25
2020-11-30 03:00,31.795,24.415,35.130,10.22
2020-11-30 04:00,,,,
2020-11-30 05:00,31.897,24.492,35.240,10.23
2020-11-30 06:00,31.976,24.542,35.380,10.30
2020-11-30 07:00,31.959,24.539,35.310,10.24
2020-11-30 08:00,32.016,24.574,35.420,10.30
2020-11-30 09:00,32.028,24.581,35.440,10.31
2020-11-30 10:00,32.038,24.588,35.450,10.31
2020-11-30 11:00,32.049,24.596,35.470,10.32
2020-11-30 12:00,32.006,24.566,35.410,10.30
2020-11-30 13:00,31.908,24.499,35.260,10.24
2020-11-30 14:00,31.957,24.539,35.300,10.23
2020-11-30 15:00,32.085,24.615,35.550,10.37
2020-11-30 16:00,32.111,24.613,35.690,10.50
2020-11-30 17:00,32.133,24.627,35.730,10.52
2020-11-30 18:00,32.059,24.575,35.630,10.49
2020-11-30 19:00,32.258,24.671,36.130,10.83
2020-11-30 20:00,32.529,24.827,36.680,11.14